Home > Weather > Sault Ste. Marie > Past weeks

Flag for Canada Past Weather in Sault Ste. Marie, Ontario, Canada — Yesterday and Last 2 Weeks

Now
54 °F

Mostly cloudy.


Feels Like: 51 °F
Forecast: 56 / 63 °F
Wind: 8 mph from East

Location: Sault Ste Marie

Current Time: Jun 1, 2016 at 3:35:05 AM

Latest Report: Jun 1, 2016 at 3:00 AM


Visibility: 15 mi

Pressure: 30.08 "Hg

Humidity: 82%

Dew Point: 48 °F

Location of Sault Ste. MarieLocation

Past Weather in Sault Ste. Marie — Graph

°F

Sault Ste. Marie Temperature Yesterday

Maximum temperature yesterday: 72 °F (at 6:00 PM)
Minimum temperature yesterday: 45 °F (at 5:50 AM)
Average temperature yesterday: 56 °F

High & Low Weather Summary for the Past Weeks

 TemperatureHumidityPressure
High79 °F (May 23, 3:00 PM)100% (May 17, 7:00 AM)30.31 "Hg (May 17, 7:00 AM)
Low30 °F (May 19, 4:00 AM)21% (May 19, 2:00 PM)29.78 "Hg (May 26, 9:00 PM)
Average57 °F70%30.04 "Hg
* Reported May 17 2:00 AM — Jun 1 2:00 AM, Sault Ste. Marie, Weather by CustomWeather, © 2016

Note: Actual official high and low records may vary slightly from our data, if they occured in-between our weather recording intervals... More about our weather records

Advertising

Sault Ste. Marie Weather History for the Previous 24 Hours

Scroll right to see more
 ConditionsComfort  
Time TempWeatherWind HumidityBarometerVisibility
2:00 AM
Wed, Jun 1
54 °FPartly cloudy.8 mph82%30.09 "Hg15 mi
1:00 AM54 °FPartly cloudy.7 mph77%30.09 "Hg15 mi
12:00 AM54 °FPassing clouds.7 mph77%30.10 "Hg15 mi
11:00 PM
Tue, May 31
55 °FPassing clouds.6 mph72%30.11 "Hg15 mi
10:00 PM59 °FPartly sunny.3 mph68%30.10 "Hg15 mi
9:00 PM63 °FBroken clouds.6 mph56%30.09 "Hg15 mi
8:00 PM66 °FScattered clouds.10 mph49%30.07 "Hg15 mi
7:00 PM70 °FPartly sunny.10 mph46%30.07 "Hg15 mi
6:00 PM72 °FPartly sunny.6 mph44%30.09 "Hg15 mi
5:00 PM70 °FScattered clouds.6 mph46%30.09 "Hg15 mi
4:00 PM66 °FPassing clouds.8 mph52%30.09 "Hg15 mi
3:00 PM64 °FPassing clouds.7 mph52%30.11 "Hg15 mi
2:00 PM61 °FScattered clouds.6 mph55%30.11 "Hg15 mi
1:00 PM57 °FPassing clouds.8 mph63%30.12 "Hg15 mi
12:00 PM55 °FPassing clouds.10 mph63%30.14 "Hg15 mi
11:00 AM55 °FPassing clouds.9 mph63%30.13 "Hg15 mi
10:00 AM52 °FPassing clouds.8 mph67%30.14 "Hg15 mi
9:00 AM54 °FPassing clouds.9 mph63%30.14 "Hg15 mi
8:00 AM50 °FPassing clouds.10 mph71%30.11 "Hg15 mi
7:00 AM46 °FPassing clouds.6 mph87%30.10 "Hg15 mi
6:00 AM45 °FPartly cloudy.5 mph93%30.07 "Hg15 mi
5:50 AM45 °FPartly cloudy.6 mph93%30.06 "Hg15 mi
5:00 AM46 °FFog.5 mph93%30.06 "Hg1 mi
4:00 AM46 °FFog.9 mph93%30.05 "Hg2 mi
3:00 AM46 °FClear.9 mph87%30.03 "Hg15 mi
Weather by CustomWeather, © 2016

See weather overviewHow to use our weather pages